Weather Service Report


217 
ASUS46 KSEW 201510
RWRWA 

WASHINGTON REGIONAL WEATHER ROUNDUP
NATIONAL WEATHER SERVICE SEATTLE WA
800 AM PDT SAT OCT 20 2018

NOTE:"FAIR" INDICATES FEW OR NO CLOUDS BELOW 12,000 FEET WITH NO 
SIGNIFICANT WEATHER AND/OR OBSTRUCTIONS TO VISIBILITY.

WAZ507-509-555>559-201600-
SEATTLE, TACOMA, EVERETT, AND VICINITY
  
CITY           SKY/WX    TMP DP  RH WIND       PRES   REMARKS
EVERETT        CLOUDY    47  47 100 CALM      30.23F FOG              
BOEING FIELD   CLOUDY    49  46  90 VRB3      30.24F                  
RENTON           N/A     42  41  96 CALM      30.24S VSB<1/4          
SEATAC AIRPORT MOCLDY    50  46  86 N10       30.23S                  
JBLM-MCCHORD   NOT AVBL                                               
PUYALLUP       DRZL/FOG  43  43 100 CALM      30.23F VSB<1/4          
BREMERTON      FOG       45  45 100 NE3       30.24S VSB 1/4          
JBLM-FT LEWIS  FOG       45  45 100 CALM      30.23S VSB 1/4          
TACOMA NARROWS CLOUDY    46  45  96 CALM      30.23F FOG              
$$
 
WAZ001-503-506-510-514-515-201600-
NORTH INTERIOR
  
CITY           SKY/WX    TMP DP  RH WIND       PRES   REMARKS
BELLINGHAM     FOG       44  42  93 CALM      30.24S VSB 1/4          
FRIDAY HARBOR  CLOUDY    50  47  89 CALM      30.25F FOG              
EASTSOUND      CLOUDY    50  50 100 NW5       30.24R                  
PORT ANGELES   CLEAR     38  37  97 SW5       30.24F FOG              
EDIZ HOOK      FAIR      46  44  93 CALM      30.24S                  
PORT TOWNSEND  MOCLDY    46  45  93 CALM      30.23S                  
NAS WHIDBEY    CLOUDY    51  47  86 CALM      30.28F FOG              
ARLINGTON      CLOUDY    41  41 100 CALM      30.24F FOG              
BURLINGTON     FOG       45  45 100 NW5       30.25R VSB 1/2          
$$
 
WAZ020-022-039-040-504-511-512-201600-
SOUTHWEST INTERIOR
  
CITY           SKY/WX    TMP DP  RH WIND       PRES   REMARKS
SHELTON        FOG       46  44  93 CALM      30.22F VSB 1/4          
OLYMPIA        FOG       45  45 100 CALM      30.24S VSB 1/4          
CHEHALIS       CLOUDY    46  46 100 CALM      30.22F FOG              
KELSO          CLOUDY    49  46  90 NW7       30.20F                  
VANCOUVER      CLOUDY    50  47  89 VRB5      30.18S                  
SCAPPOOSE, OR  CLEAR     41  41 100 CALM      30.17S                  
PORTLAND, OR   CLOUDY    51  48  89 NW5       30.18F FOG              
$$
 
WAZ021-516-517-201600-
WASHINGTON COAST
  
CITY           SKY/WX    TMP DP  RH WIND       PRES   REMARKS
FORKS          PTCLDY    38  37  97 NE5       30.21F                  
HOQUIAM        FOG       44  43  96 CALM      30.22S VSB 1/4          
ASTORIA, OR    FOG       39  39 100 CALM      30.18F VSB 1/2          
$$
 
WAZ019-023-024-040-567>569-201600-
CASCADE MOUNTAINS AND COLUMBIA GORGE
  
CITY           SKY/WX    TMP DP  RH WIND       PRES   REMARKS
STAMPEDE PASS  CLEAR     48  34  58 E3        30.23F                  
TROUTDALE, OR  CLOUDY    48  47  96 NW5       30.18S FOG              
HOOD RIVER, OR SUNNY     36  34  93 S3        30.25S                  
THE DALLES, OR CLEAR     36  34  92 CALM      30.25F FOG              
$$

WAZ026-027-041>044-520-521-201600-
EAST SLOPES
  
CITY           SKY/WX    TMP DP  RH WIND       PRES   REMARKS
OMAK           CLEAR     33  32  96 N3        30.27S                  
WENATCHEE      CLEAR     38  35  89 NW5       30.25R                  
ELLENSBURG     CLEAR     32  28  85 CALM      30.24S FOG              
YAKIMA         CLEAR     31  28  89 W5        30.24F                  
SUNNYSIDE ARPT SUNNY     32  31  97 CALM      30.24S FOG              
$$

WAZ028-034-035-201600-
COLUMBIA BASIN
  
CITY           SKY/WX    TMP DP  RH WIND       PRES   REMARKS
EPHRATA        CLEAR     39  34  82 N5        30.23S                  
MOSES LAKE     CLEAR     32  29  88 N5        30.24S                  
PASCO          CLEAR     32  30  92 NW5       30.26R FOG              
RICHLAND ARPT  FOG       33  33 100 CALM      30.26S VSB<1/4          
HERMISTON, OR  CLEAR     32  31  96 S3        30.23S FOG              
$$

WAZ036>038-201600-
NORTHEAST WASHINGTON
  
CITY           SKY/WX    TMP DP  RH WIND       PRES   REMARKS
SPOKANE GEIGER CLEAR     40  35  83 NE5       30.24S                  
SPOKANE FELTS  CLEAR     37  36  96 CALM      30.26S                  
FAIRCHILD AFB  CLEAR     36  36 100 E7        30.23F                  
COEURDALENE,ID CLEAR     40  37  89 E3        30.26F                  
DEER PARK      CLEAR     28  27  96 CALM      30.26S                  
$$

WAZ029>033-201600-
SOUTHEAST WASHINGTON
  
CITY           SKY/WX    TMP DP  RH WIND       PRES   REMARKS
PULLMAN        CLEAR     49  34  56 E13       30.25S                  
LEWISTON, ID   CLEAR     40  33  76 CALM      30.26R                  
WALLA WALLA    CLEAR     42  36  79 E5        30.22F                  
PENDLETON, OR  CLEAR     38  34  85 SE5       30.22R                  
$$
  

Return to Home page


Western Regional Climate Center, wrcc@dri.edu